Theta_e
342 343 345 348 349 347 346 344 344 344 342 342 342 342 341 341 341 343 344 348 348 347 344 344 345 346 345 345 345 345 344 343 342 342 341 341 343 342 341 342 341 341 341 343 344 343 344 345 346 346 346 345 347 347 349 349 348 347 348 348 348 347 346 346 346 345 345 345 346 346 345 345 346 346 346 346 346 345 343 343 342 340 339 342 344
342 344 344 347 349 346 345 345 343 342 341 341 340 339 338 337 339 341 342 343 346 347 345 343 343 343 343 342 342 342 343 342 340 340 340 339 340 339 340 340 340 341 342 341 342 342 342 343 344 345 345 345 345 346 347 346 346 346 345 345 346 346 345 345 345 344 343 344 345 344 344 345 345 346 346 346 345 344 342 342 342 339 339 343 342
343 344 345 347 348 347 345 344 343 343 342 341 340 339 340 342 342 342 343 346 345 344 343 343 343 342 341 340 340 340 342 342 341 341 341 339 339 340 340 339 340 340 340 341 341 341 341 342 341 343 343 343 344 345 346 346 345 345 344 345 345 345 344 344 344 343 342 342 342 342 342 343 342 343 345 346 345 343 341 342 342 341 339 342 341
343 344 345 345 346 347 345 344 342 342 341 340 339 338 339 340 341 343 344 346 346 344 343 343 342 341 340 340 340 340 342 342 342 342 342 341 339 339 340 340 340 340 340 341 340 340 339 339 339 340 340 340 342 344 345 345 345 345 345 346 345 344 343 343 343 342 342 341 341 339 338 336 338 343 343 345 345 344 341 341 340 342 341 340 343
343 344 344 344 344 345 345 344 343 341 341 341 340 339 339 341 343 346 346 345 346 346 344 343 342 341 341 340 340 341 343 344 343 343 343 343 342 339 338 340 340 340 339 340 340 340 340 339 338 340 340 339 342 344 344 344 344 344 345 345 343 343 343 342 342 341 341 340 339 337 335 335 337 341 343 345 344 342 341 340 340 341 340 339 342
343 343 344 343 342 343 345 345 344 343 341 340 340 339 340 339 343 345 345 346 346 345 343 342 342 339 339 339 339 339 342 343 343 343 344 345 343 340 339 339 340 340 341 341 341 341 340 339 340 339 339 339 340 343 344 344 344 344 344 344 343 342 342 341 341 340 339 338 337 334 334 335 336 337 342 342 343 341 341 341 341 341 340 340 341
343 343 344 343 342 342 344 345 344 343 341 340 340 340 340 340 345 347 347 346 346 346 344 343 341 339 339 339 341 342 344 343 343 343 343 343 341 339 338 338 338 339 340 340 341 341 341 341 340 340 340 339 339 341 343 343 343 343 343 343 342 341 341 340 340 339 337 335 332 332 333 334 335 336 342 341 343 342 341 341 341 341 340 339 339
343 343 343 342 341 343 344 344 343 343 342 341 341 341 340 340 343 345 346 346 347 345 344 342 341 340 340 339 343 343 343 343 341 340 341 340 341 339 337 337 338 338 339 339 339 338 338 339 340 339 339 338 339 340 343 342 342 342 343 343 343 341 340 340 339 338 337 333 332 333 333 335 335 336 340 341 342 342 341 341 340 341 340 338 336
341 343 343 342 342 343 344 344 344 343 342 341 341 340 340 340 343 346 347 346 346 346 343 342 341 340 340 335 335 340 340 341 340 340 341 341 341 341 340 340 339 338 338 338 338 338 338 340 340 340 339 340 339 341 342 342 342 342 343 342 342 341 340 339 337 336 333 332 331 331 332 334 335 335 339 340 340 339 338 338 338 338 337 336 335
342 343 343 342 342 341 343 344 344 343 343 342 342 341 340 340 343 346 346 346 345 345 343 342 342 340 338 336 336 336 337 337 337 339 341 340 340 339 340 341 341 341 341 340 339 339 339 338 340 340 340 341 340 341 341 342 342 341 342 342 341 340 339 337 335 333 331 331 331 332 333 336 332 334 338 339 339 338 337 335 336 336 335 335 335
342 342 342 342 341 341 345 344 344 344 342 342 342 342 340 340 342 347 347 346 346 344 343 342 341 339 338 337 337 337 337 338 338 340 340 339 338 337 339 340 340 340 341 341 341 340 340 340 340 340 340 340 340 340 341 341 342 340 340 341 340 339 338 336 332 329 329 328 328 329 334 336 330 331 337 337 337 337 336 336 336 334 334 334 334
342 342 342 341 343 341 345 344 344 343 342 342 343 343 341 341 341 346 345 345 345 344 342 341 339 338 337 337 336 337 339 340 339 339 339 338 338 338 338 338 338 338 338 339 339 339 339 340 339 339 339 339 339 339 340 341 340 340 340 340 339 338 337 334 330 328 328 328 328 328 328 329 329 333 336 336 336 335 335 335 334 334 334 333 333
342 342 342 341 341 341 343 345 344 344 343 343 343 343 342 342 341 342 344 344 343 343 342 340 340 339 338 337 336 336 336 336 336 338 338 338 338 338 338 338 337 337 337 337 338 338 339 339 339 339 339 339 338 339 340 339 339 339 339 339 339 338 334 332 328 327 326 326 326 327 326 326 327 333 334 335 335 334 334 333 333 332 332 332 331
341 341 341 341 341 344 340 341 343 344 344 343 343 343 343 343 342 342 341 341 341 342 341 341 339 338 337 337 337 335 336 336 336 335 336 337 337 337 337 337 338 337 337 337 336 337 338 338 339 338 338 337 337 338 338 338 338 338 338 338 337 336 332 330 330 326 325 325 326 325 325 326 326 333 334 334 333 332 332 332 331 331 330 329 329
340 340 341 341 341 341 341 339 342 342 343 344 344 343 343 343 342 342 341 340 340 340 340 340 338 337 337 337 336 335 335 336 337 337 337 337 337 337 337 337 336 337 337 337 337 336 336 338 338 338 337 337 337 338 338 337 337 338 337 336 335 332 330 328 327 325 324 325 324 324 324 325 332 332 332 333 332 331 330 330 330 329 328 328 328
341 341 341 341 340 340 340 342 338 338 341 342 342 343 343 343 342 342 342 341 340 340 339 338 337 336 337 336 337 337 335 335 339 341 341 340 338 337 337 336 337 337 336 336 336 336 336 336 337 337 336 337 337 337 337 337 336 336 336 335 332 330 328 324 322 323 323 322 323 323 322 324 332 332 331 331 331 330 329 328 328 329 327 326 326
341 341 341 340 340 339 340 340 337 334 335 336 338 340 341 343 343 342 343 342 342 340 339 339 337 336 336 340 340 341 342 340 339 341 341 338 337 338 338 337 337 336 337 336 336 336 336 337 337 336 336 336 337 337 336 336 336 337 334 333 331 329 325 323 322 321 322 323 323 323 323 322 331 331 330 329 329 329 328 327 327 326 325 326 325
340 340 340 340 340 339 340 338 336 337 336 334 333 337 340 342 342 342 342 342 342 341 341 342 341 340 340 338 338 338 339 339 340 340 341 340 338 338 338 337 337 336 336 335 335 335 335 336 336 336 336 336 336 336 336 336 335 335 332 331 329 327 326 323 320 320 321 324 321 322 322 330 330 330 330 329 328 328 327 326 326 326 325 325 324
339 339 340 340 340 339 340 339 338 337 336 335 335 335 334 338 340 340 341 341 341 340 338 337 338 339 338 334 333 332 331 333 334 336 336 336 335 334 338 337 336 335 334 334 334 335 335 335 335 335 335 335 335 335 334 334 334 333 332 329 326 322 322 321 318 319 319 320 320 319 320 331 329 329 328 328 328 327 326 326 325 324 324 324 323
337 339 339 340 340 339 339 339 339 338 336 335 335 334 333 333 336 338 338 338 338 337 335 333 331 331 331 330 328 326 325 326 326 329 332 335 333 331 333 335 335 334 334 334 333 333 334 334 335 335 334 334 334 333 333 333 332 332 330 328 324 320 322 319 318 318 318 319 319 318 327 332 328 328 327 327 327 326 326 325 325 324 324 322 321
335 336 338 339 339 339 339 338 338 338 337 336 336 335 334 330 331 331 333 335 335 333 331 325 323 323 324 323 325 325 324 324 326 325 324 328 325 327 332 336 334 334 333 333 333 332 333 333 334 333 333 333 330 330 329 331 330 330 328 324 319 322 321 320 318 318 318 319 320 319 329 332 329 328 327 327 326 327 325 324 324 322 322 322 321
331 331 335 338 338 339 339 338 338 338 337 338 338 337 333 333 333 332 331 330 327 325 325 326 329 323 322 324 325 325 324 323 326 329 325 326 326 326 330 334 334 334 334 332 332 331 331 332 332 333 333 330 325 317 319 324 326 327 324 318 319 319 319 321 319 317 317 317 318 323 331 328 328 328 326 326 325 326 325 324 323 322 321 320 321
328 329 331 336 337 339 339 338 338 338 338 338 338 336 334 334 333 333 331 327 329 328 328 328 326 325 323 324 324 324 325 323 324 326 326 322 325 325 329 331 332 331 333 333 332 331 331 331 331 331 331 329 318 317 317 315 315 319 318 317 317 320 319 321 319 318 316 317 317 327 327 331 327 327 328 326 325 324 323 323 323 321 321 320 320
329 328 330 331 337 338 339 339 338 338 338 338 338 336 336 335 334 334 332 330 329 330 329 328 328 326 326 326 325 324 323 325 328 328 327 324 323 323 326 327 328 328 329 329 330 331 331 330 329 330 326 320 317 317 318 317 316 315 316 318 318 319 318 319 319 318 316 319 318 326 329 328 327 327 326 325 325 324 323 322 322 321 320 318 319
329 328 328 329 333 337 338 338 338 339 338 337 337 336 336 336 335 334 333 332 331 330 330 329 328 327 326 327 325 324 325 325 325 325 323 323 322 323 324 324 323 321 323 321 322 323 322 318 318 319 315 316 316 318 320 320 319 318 319 318 319 318 317 317 320 318 318 317 317 324 325 330 328 326 326 325 324 324 322 322 322 321 320 320 319
328 328 327 327 329 334 336 338 338 338 338 337 337 336 336 335 335 334 333 333 332 331 330 329 329 328 326 326 327 325 325 325 325 324 324 323 322 321 323 322 320 321 321 321 319 319 317 317 315 316 317 317 318 316 318 318 318 317 318 316 316 316 316 317 319 319 319 318 316 322 325 328 329 327 326 324 324 324 323 321 321 321 320 321 320
326 327 328 327 328 332 334 337 337 337 337 338 338 336 335 335 336 334 333 332 332 330 329 329 329 329 327 326 324 322 323 324 324 324 323 323 323 322 322 322 322 321 322 322 320 320 319 318 316 317 317 316 317 315 316 316 316 316 315 315 315 317 316 317 319 319 319 317 317 320 324 329 329 328 326 326 324 323 323 322 321 322 321 320 321
325 326 327 328 326 330 333 336 336 337 336 337 337 336 335 335 336 333 333 331 332 330 329 329 329 330 328 327 325 322 322 322 322 322 322 323 323 323 323 322 322 323 322 322 322 319 319 319 318 316 317 315 317 317 316 316 316 316 317 315 315 316 316 314 317 318 318 318 318 318 321 324 327 331 330 328 326 325 325 324 323 324 322 322 320
324 325 327 327 327 328 332 334 335 335 336 336 335 337 336 335 335 334 334 330 333 331 330 329 328 328 328 327 324 323 321 322 321 322 321 322 323 324 323 323 322 323 322 319 321 320 319 318 318 318 318 317 314 315 316 316 314 314 315 315 314 315 315 314 315 316 317 319 318 317 320 323 326 330 330 330 328 328 328 326 325 324 324 322 322
326 326 326 327 328 328 330 332 334 335 336 335 334 335 335 333 334 335 335 331 334 333 330 328 327 327 327 327 325 325 323 322 322 323 321 321 322 324 323 323 322 322 321 320 320 320 319 317 316 317 317 317 314 317 316 316 316 315 314 314 314 316 314 314 313 316 319 319 318 317 317 321 324 328 329 330 328 328 329 328 327 326 325 324 324
327 326 327 327 328 328 328 330 333 332 334 334 332 334 333 333 332 334 333 333 334 334 331 329 327 327 327 327 327 324 324 323 323 323 323 323 322 323 322 321 320 319 321 321 321 321 319 318 318 317 317 316 317 316 315 318 315 316 315 314 315 312 315 314 314 315 317 318 318 317 317 318 321 324 329 329 329 328 328 329 328 328 328 327 326
327 327 328 328 328 329 329 329 331 331 332 333 331 332 333 333 332 333 333 332 332 332 331 330 327 327 327 327 326 326 324 323 323 323 323 322 321 321 322 320 320 318 319 320 318 320 319 317 316 316 316 316 317 315 315 315 315 315 314 315 314 314 313 314 314 315 317 317 317 317 317 317 317 320 323 328 329 330 328 328 329 329 330 330 329
327 329 329 327 329 329 330 330 330 329 331 332 331 332 333 333 332 332 333 333 332 331 331 330 330 329 328 328 327 327 325 325 322 324 323 323 322 321 321 322 322 321 319 318 318 317 315 314 314 314 313 313 313 312 312 312 314 313 311 316 316 317 317 314 314 313 315 316 316 315 317 317 317 316 318 321 326 328 329 328 328 328 329 329 329
326 328 329 328 330 331 331 332 331 330 330 331 332 331 332 333 333 332 332 333 332 331 330 331 330 330 329 328 327 327 327 325 323 321 323 325 324 324 322 320 320 320 318 317 318 315 316 313 313 313 315 312 312 312 311 311 310 310 309 310 311 316 317 317 315 314 312 315 316 315 315 315 316 316 316 317 320 322 327 329 328 328 328 328 329
325 326 328 329 329 331 332 332 330 331 329 330 331 332 332 332 332 333 332 333 332 332 331 331 331 331 330 328 328 326 327 328 326 323 322 323 325 325 324 323 322 319 318 316 318 315 315 317 312 313 312 312 312 312 312 313 310 312 312 313 313 314 314 316 316 313 312 312 312 312 314 314 314 315 315 315 312 315 320 326 328 327 328 328 328
327 326 328 329 328 330 330 331 330 331 330 330 330 332 332 331 332 329 333 332 332 332 331 331 331 331 330 329 327 327 327 329 329 326 322 321 323 325 324 325 324 322 320 317 316 317 315 315 313 313 311 312 310 313 310 312 312 312 312 312 312 312 314 313 314 314 312 309 312 311 312 311 313 314 313 314 314 313 314 318 324 327 327 328 329
329 326 326 327 328 329 329 330 330 331 331 331 330 329 331 331 331 332 333 331 332 332 332 331 330 330 330 330 329 329 329 329 329 329 327 325 325 327 325 325 325 324 323 321 319 318 316 315 312 313 313 311 310 311 311 312 312 313 313 312 312 312 312 313 313 311 308 308 310 310 310 311 310 309 312 312 313 314 313 314 318 321 322 327 328
328 327 327 328 328 328 328 329 330 331 332 331 331 330 331 331 330 331 331 331 331 331 331 331 331 329 330 330 330 331 330 330 330 330 328 328 326 326 326 326 325 324 322 321 319 317 316 316 314 312 313 313 311 311 311 311 311 312 311 311 310 306 307 307 307 304 306 309 309 309 310 310 310 310 310 310 311 311 313 314 315 315 314 318 325
326 326 326 327 327 327 327 326 328 330 331 332 331 331 330 329 328 329 330 330 330 330 331 330 331 331 329 330 329 330 329 330 330 330 329 328 326 325 323 323 324 322 320 319 317 317 317 316 315 314 311 313 313 312 312 311 311 310 310 311 307 305 304 302 303 305 305 306 307 308 307 308 309 309 310 310 310 310 311 311 311 313 314 314 320
325 325 325 326 327 327 327 326 327 329 330 331 330 330 329 327 326 322 324 326 328 328 329 330 330 330 330 329 329 329 329 330 330 330 329 327 326 324 323 323 322 321 320 318 317 316 315 314 313 313 313 311 311 311 309 311 308 308 309 309 306 306 305 303 304 305 305 305 306 305 305 306 305 307 307 308 308 308 309 310 310 312 313 313 315
324 324 325 325 326 327 326 326 327 328 328 329 329 329 327 326 324 325 322 323 325 327 328 328 328 329 329 329 329 329 328 328 329 330 329 326 327 326 324 324 326 325 323 321 320 318 318 316 314 312 313 313 313 312 312 311 311 309 309 308 309 309 306 305 305 305 305 306 305 305 305 303 304 304 305 305 305 306 307 308 309 311 311 311 312
322 323 324 325 326 326 326 327 327 328 328 329 328 328 328 328 327 326 323 322 322 323 325 325 327 327 327 328 329 329 328 328 326 328 328 329 328 327 326 326 326 325 324 323 319 317 319 316 313 310 313 314 314 313 311 312 308 308 308 308 308 310 309 306 305 305 305 305 304 304 304 303 303 304 304 304 304 305 306 307 307 308 308 309 310
323 323 324 325 325 325 327 327 327 328 328 328 328 327 327 326 326 321 324 319 319 323 323 322 324 325 325 325 328 330 330 328 327 325 328 328 328 327 326 326 324 323 321 319 318 319 319 317 315 315 311 311 313 312 310 313 311 306 305 304 303 303 305 302 303 303 304 304 303 303 303 302 303 303 303 303 303 303 304 305 305 305 306 307 308
320 321 323 323 325 324 325 326 327 327 327 327 325 327 326 325 325 322 323 324 322 319 321 321 321 321 322 323 325 328 329 329 328 326 326 327 327 328 328 327 326 323 322 320 319 320 319 317 316 316 316 311 309 311 312 312 312 308 305 304 301 300 302 303 298 303 303 304 304 303 302 302 302 302 301 302 302 303 303 303 303 304 304 305 306
318 319 321 323 325 324 325 326 327 327 327 324 325 324 323 321 321 317 317 317 316 316 317 317 320 319 318 318 322 322 324 326 327 328 324 327 328 328 327 325 323 324 323 322 321 321 320 319 317 315 313 315 313 310 310 310 311 313 311 303 301 298 300 301 303 308 303 301 301 302 302 302 302 302 301 301 301 302 302 302 303 303 303 304 304
315 317 320 322 323 323 322 323 324 325 325 323 324 324 323 323 320 319 317 316 317 315 318 318 316 317 319 313 316 317 320 322 325 328 328 326 327 327 327 325 323 325 325 324 322 319 318 317 317 317 315 315 316 311 309 307 310 310 312 314 313 308 306 302 304 303 307 306 304 301 301 301 301 302 301 301 301 301 301 302 303 303 303 303 304
310 310 309 314 316 319 320 321 323 323 324 322 321 322 322 322 322 321 320 319 318 313 310 309 313 310 310 314 316 315 317 319 320 322 325 326 326 325 325 325 326 326 321 322 319 319 320 320 318 316 316 314 313 312 311 312 305 306 308 310 309 310 310 305 303 303 301 304 304 303 304 300 301 301 300 301 301 301 302 302 302 303 303 303 304
303 300 305 308 313 316 318 319 320 320 321 321 320 321 322 320 319 318 316 316 315 314 310 312 310 311 312 312 311 312 313 316 316 315 318 319 322 324 324 325 326 325 323 323 322 321 318 319 318 318 317 315 314 313 313 312 308 307 306 307 307 308 308 307 307 304 302 299 302 308 307 307 302 302 303 303 303 303 303 303 302 302 303 303 303
300 302 304 307 309 313 315 315 317 317 317 319 319 318 320 319 318 317 313 311 312 311 309 308 311 310 311 309 311 310 312 314 316 316 312 315 316 319 321 321 321 320 317 320 320 320 319 319 318 317 316 315 315 314 312 312 310 311 305 303 305 305 305 305 305 304 301 300 301 303 305 305 305 305 304 304 305 304 304 305 305 304 303 303 303
300 301 300 301 304 309 313 314 314 315 315 317 317 315 316 316 316 314 314 310 311 307 308 307 306 306 307 305 307 308 310 311 314 316 317 317 318 318 318 319 319 319 315 319 318 318 318 317 317 316 315 314 313 314 314 313 312 311 309 307 304 302 301 301 302 302 302 302 299 301 304 303 302 306 307 307 305 306 306 306 305 304 303 303 303
297 300 301 302 302 308 310 312 311 312 312 315 315 314 314 314 315 313 313 311 310 310 309 308 307 305 308 305 306 309 309 313 313 315 315 314 315 316 317 317 318 313 314 317 316 316 316 317 316 316 315 314 313 313 311 311 312 311 310 310 309 306 306 304 303 301 301 298 299 301 303 304 304 305 307 307 307 307 307 306 305 304 303 303 303
Wind_Speed
4 7 5 8 10 11 13 12 12 12 12 12 12 12 12 11 11 13 13 16 15 15 16 15 17 17 18 17 17 18 18 18 16 16 17 17 19 18 19 18 18 18 18 18 18 18 18 18 19 18 18 19 20 20 20 20 21 20 19 19 19 20 20 20 19 19 19 20 20 19 17 17 18 19 19 20 19 18 16 17 14 11 10 14 19
8 6 4 6 11 12 13 13 13 13 13 12 12 12 12 12 12 13 11 11 15 16 15 15 16 16 16 16 16 16 17 18 17 16 16 17 18 18 18 18 19 19 19 19 18 18 18 18 18 18 18 18 18 18 19 19 20 19 18 18 17 18 19 19 19 18 18 18 19 19 19 18 19 18 20 20 20 19 16 17 17 10 8 18 19
9 7 5 7 11 12 13 13 13 13 13 12 11 11 11 12 13 12 11 13 13 15 15 16 16 16 16 15 14 15 17 17 17 17 17 17 17 17 18 18 18 18 18 18 18 18 17 17 18 17 18 17 18 18 18 19 18 17 17 16 15 15 17 19 19 18 18 18 17 17 17 19 18 18 20 20 20 19 17 18 16 16 11 20 17
10 6 6 7 11 11 12 13 13 13 12 12 11 10 10 13 12 11 11 12 14 15 14 15 16 16 16 14 14 16 16 16 17 17 17 17 16 17 16 17 17 18 18 18 18 18 18 18 18 18 17 17 17 17 17 16 16 16 16 17 18 20 20 18 18 18 17 17 16 13 8 7 11 18 20 20 20 19 16 19 18 18 19 17 19
10 7 7 6 7 10 13 13 13 13 13 12 12 10 9 10 11 12 12 12 13 14 15 15 15 16 15 15 15 17 16 17 18 17 17 17 17 16 16 17 16 16 17 17 18 18 18 18 18 17 17 16 16 16 16 16 16 16 17 18 19 19 18 18 18 17 16 15 14 11 6 7 7 16 18 19 19 17 16 18 18 18 17 18 17
9 8 7 6 7 8 11 12 13 13 12 12 11 9 9 11 12 13 13 13 13 14 14 15 15 15 14 14 15 15 17 17 17 17 18 17 17 16 15 16 17 17 16 17 17 18 18 18 17 16 16 15 14 15 16 16 16 16 16 17 18 18 18 17 17 16 15 14 11 7 7 7 8 9 15 17 18 16 17 17 17 17 17 18 19
11 7 7 6 6 7 11 12 13 13 13 12 11 10 10 8 14 15 14 13 13 14 15 15 15 14 14 15 16 16 16 16 17 16 16 16 17 16 14 16 16 16 16 16 17 17 17 18 17 16 16 15 16 16 15 15 16 16 16 16 15 17 18 16 15 15 13 8 6 6 6 7 6 4 16 16 16 17 17 17 17 17 17 16 17
8 7 7 6 5 8 11 12 13 13 13 12 11 10 9 10 13 14 14 13 13 13 15 15 14 14 14 14 16 16 15 15 15 16 16 16 16 15 14 15 15 15 15 15 17 16 16 17 16 16 16 16 15 16 14 15 16 17 17 16 16 16 17 15 14 13 12 7 6 5 5 5 5 5 14 16 18 17 17 17 17 17 17 16 12
9 9 8 7 6 11 11 11 13 13 13 12 11 10 10 11 12 14 14 13 13 13 15 14 14 14 14 13 12 15 14 15 15 15 16 16 16 15 14 14 14 15 16 16 16 16 16 16 16 16 16 15 15 14 13 14 16 18 18 18 17 16 14 13 13 12 8 6 6 6 6 6 6 6 14 17 18 17 16 12 13 16 16 13 14
10 9 8 6 6 11 11 11 13 13 12 12 11 10 10 9 13 15 14 13 13 12 14 14 14 14 14 12 12 13 14 14 15 15 15 16 14 14 15 15 15 15 15 16 15 15 15 15 15 15 15 14 13 12 13 14 16 18 17 17 17 16 14 12 11 9 7 6 6 6 7 7 5 5 12 15 16 16 13 11 8 5 8 14 14
11 9 8 7 8 11 12 13 11 11 12 12 11 10 10 9 11 15 14 14 13 13 15 14 14 14 13 13 14 13 13 14 14 15 15 15 13 14 15 14 15 15 15 15 15 15 15 15 15 14 14 13 12 12 12 14 15 16 16 15 15 14 13 12 10 6 6 6 6 5 5 7 4 4 11 13 13 13 9 9 9 11 11 12 13
10 9 8 7 9 11 12 11 11 12 11 11 11 10 10 8 9 16 15 14 13 14 14 14 13 13 13 13 12 13 15 15 14 14 14 14 13 13 14 14 13 13 13 13 14 14 14 14 14 13 13 13 12 11 12 13 14 15 15 14 14 12 11 11 7 6 6 6 6 6 6 5 4 6 11 11 11 11 10 10 11 10 10 10 10
10 9 7 7 6 10 12 11 10 10 11 12 11 11 10 8 8 12 14 13 13 13 14 13 12 12 12 12 12 11 11 11 12 12 12 13 12 13 13 13 13 12 13 13 12 13 13 14 14 13 12 12 11 10 11 12 13 13 13 12 10 10 10 11 7 7 6 5 5 5 5 5 4 10 11 11 12 11 11 11 10 11 10 10 11
10 9 7 6 6 11 12 11 10 9 10 11 11 10 10 10 9 10 11 11 12 12 12 12 12 11 10 11 12 10 11 12 11 12 12 12 13 12 12 12 12 12 12 12 12 12 12 13 13 12 12 11 10 9 10 11 12 11 11 11 10 8 9 7 7 6 6 6 5 5 4 3 4 10 11 11 11 10 9 9 9 10 9 9 9
11 11 8 6 6 6 11 11 9 9 9 9 10 10 10 10 10 10 10 11 11 11 12 11 11 10 10 10 12 11 10 12 11 12 11 10 12 13 12 11 11 11 11 11 11 11 11 12 12 12 12 11 9 9 9 10 10 10 10 10 9 7 7 5 5 5 5 5 5 5 5 4 9 11 11 12 11 10 9 9 10 9 9 10 10
13 11 10 7 6 5 6 9 10 9 9 9 9 9 9 10 10 10 10 10 10 11 11 11 11 10 10 9 11 10 10 9 10 11 9 11 13 11 11 12 12 11 11 11 11 11 11 11 11 11 11 10 9 8 9 9 8 8 8 9 10 9 8 7 6 5 5 5 4 4 4 3 10 11 11 11 11 10 9 9 9 9 9 8 9
10 11 10 9 7 5 6 5 7 10 9 8 8 8 8 9 9 10 9 10 9 10 10 11 10 10 10 11 11 10 10 10 10 10 10 10 11 11 11 11 12 12 11 11 11 11 11 11 11 11 10 10 9 8 8 8 8 7 8 8 9 8 8 8 6 5 5 4 3 4 4 3 8 10 10 10 9 9 9 9 8 8 8 7 8
10 10 10 10 8 6 6 5 6 6 5 6 8 9 8 9 8 8 8 8 9 9 9 9 9 8 9 10 9 9 9 9 10 10 9 8 8 10 11 12 11 11 11 11 11 11 11 10 10 10 9 9 8 8 8 7 7 7 8 9 9 9 8 8 5 4 4 4 4 3 3 5 8 9 9 9 8 8 8 8 8 8 8 7 7
10 9 9 9 8 7 7 6 6 5 5 5 4 6 9 9 8 8 8 9 9 9 9 9 9 8 9 10 9 9 8 9 10 10 9 10 11 11 10 9 10 10 10 10 10 10 9 9 9 9 8 8 7 7 6 6 7 8 8 9 9 8 7 6 4 4 4 5 4 3 2 5 9 8 8 8 8 8 7 8 8 7 7 7 7
9 10 9 8 8 8 6 6 6 6 5 4 4 4 7 10 9 9 9 9 9 9 9 9 9 8 9 10 9 7 7 6 9 8 9 10 10 9 9 8 10 10 10 9 9 9 9 8 8 8 7 7 6 6 5 5 6 6 6 7 8 8 5 3 4 4 4 3 2 2 2 4 8 8 7 7 7 7 6 6 7 7 7 7 6
7 9 9 8 9 9 8 6 6 7 6 5 4 4 6 8 8 9 10 10 9 9 9 9 8 7 7 8 8 5 4 4 5 5 7 6 9 9 8 8 9 9 9 8 8 8 8 8 7 7 6 5 5 4 3 3 3 4 5 5 7 5 4 4 3 3 3 3 3 2 3 4 4 6 6 6 6 7 6 5 5 5 5 5 3
6 6 8 9 9 8 9 8 6 7 7 6 5 4 5 5 5 5 5 7 8 8 7 5 5 4 6 6 4 4 4 3 4 5 5 5 6 9 9 8 8 7 7 8 7 7 7 7 6 5 4 4 3 1 1 1 2 2 3 5 4 3 3 4 3 3 3 3 2 2 2 3 5 5 5 4 4 6 5 4 4 3 2 1 2
5 5 6 8 8 8 8 9 8 8 8 7 6 6 6 5 4 4 4 5 6 5 5 5 4 4 4 4 4 3 5 3 4 5 4 6 7 9 9 8 7 7 6 6 6 6 5 5 5 3 3 4 0 1 1 2 2 3 4 2 3 4 1 4 4 3 3 3 2 2 1 3 3 4 5 4 5 4 4 2 4 2 2 0 0
6 6 6 5 8 8 9 9 9 8 8 7 6 7 6 5 5 5 5 5 5 4 4 5 5 4 5 4 3 2 3 5 5 9 7 4 5 8 9 8 8 7 8 5 6 6 5 4 2 2 1 1 2 2 3 4 3 2 2 2 2 3 1 3 5 3 3 2 2 1 1 3 5 4 4 3 4 5 3 2 2 0 1 1 1
7 5 4 5 6 9 9 8 9 9 8 7 8 7 7 6 5 5 5 5 5 5 5 5 4 5 4 5 4 3 4 5 5 5 5 5 4 4 4 4 4 3 6 3 3 3 4 2 1 1 2 3 2 4 4 4 4 2 4 1 3 2 1 2 4 4 4 3 2 1 3 3 2 0 3 2 2 4 1 3 2 1 1 3 2
5 6 7 5 6 8 8 8 8 9 8 8 8 8 8 6 6 6 6 5 5 5 5 5 5 5 4 5 4 5 5 6 5 5 5 5 5 5 5 5 3 4 3 4 3 3 3 3 3 4 4 3 3 3 5 4 4 5 4 2 2 2 2 2 3 4 4 4 3 4 3 4 4 4 3 2 2 5 4 1 2 2 2 4 3
7 8 7 5 6 6 7 8 8 9 9 8 7 7 7 7 7 7 7 6 5 6 6 5 6 6 4 4 5 6 6 6 6 5 6 5 5 5 5 5 5 5 5 5 4 4 3 4 4 4 3 3 4 3 2 4 3 1 1 3 3 1 1 2 3 4 4 4 5 7 5 5 6 7 3 5 3 3 3 5 2 6 2 3 5
7 7 7 7 6 7 7 9 8 9 8 8 8 8 7 7 8 8 7 8 7 6 6 6 6 7 5 6 5 5 7 6 5 6 6 5 5 6 6 5 5 5 5 5 5 5 5 5 4 4 3 3 4 1 1 1 1 0 0 1 2 1 0 2 3 3 4 4 5 7 7 6 7 6 7 7 4 7 8 9 9 7 5 7 6
8 8 8 8 7 7 7 9 8 9 8 9 8 8 7 7 7 7 8 8 7 7 7 6 6 6 6 6 5 5 4 6 6 6 6 6 5 6 6 6 6 6 5 6 5 6 5 6 5 5 4 4 2 3 2 3 3 3 2 2 3 2 2 1 3 4 3 5 6 6 8 8 8 7 8 8 9 10 11 8 11 9 8 6 7
9 9 9 9 7 6 8 9 9 9 8 7 7 8 8 7 8 8 8 7 8 7 6 7 7 6 6 5 6 6 5 6 6 6 6 6 6 6 6 6 6 6 6 6 6 6 6 4 4 4 4 4 3 3 3 4 4 4 3 3 3 4 3 4 3 4 5 5 6 6 10 10 9 8 8 9 11 10 12 10 11 12 9 9 11
10 10 10 9 9 8 7 8 9 8 7 7 7 8 8 7 7 8 7 7 7 7 6 7 6 7 7 6 5 5 5 4 5 6 6 6 5 6 6 6 6 6 7 6 5 6 5 6 5 5 4 4 5 4 4 4 4 4 4 3 4 2 4 4 3 3 4 6 6 5 7 11 11 11 8 10 12 12 12 13 11 13 13 13 12
12 12 10 9 9 11 9 8 9 9 9 8 7 7 8 7 6 7 7 7 6 6 6 6 6 7 6 6 5 5 5 3 4 4 5 6 5 5 5 4 5 4 4 5 5 5 5 5 4 4 4 4 5 3 3 4 4 4 4 4 4 3 3 4 3 4 5 4 5 6 6 7 12 13 12 11 12 13 14 14 14 14 15 15 15
8 12 11 10 12 11 11 9 8 8 9 9 8 7 7 7 7 7 6 6 6 6 6 6 6 6 6 6 6 6 4 4 4 4 4 5 5 5 5 5 5 4 4 4 4 4 3 3 3 2 3 2 2 3 1 3 4 4 3 5 5 4 4 4 4 3 4 5 6 6 6 6 6 11 14 13 13 13 13 15 15 16 16 16 15
8 7 10 12 10 8 9 8 8 9 9 8 8 7 7 7 7 6 6 6 6 6 6 6 6 6 6 6 6 6 7 5 4 3 3 4 5 6 6 5 5 4 4 4 4 3 4 3 4 3 5 3 4 3 1 2 3 3 3 3 3 6 5 6 6 5 4 5 6 4 6 6 6 6 7 12 13 13 13 14 16 16 17 18 17
6 7 12 12 11 10 9 8 9 8 8 7 8 8 6 7 7 6 6 6 6 6 6 6 6 6 6 6 6 5 6 7 5 4 2 2 4 5 6 6 5 4 4 4 4 3 4 5 3 4 3 3 4 3 3 4 3 5 4 4 5 5 5 6 6 5 5 4 5 4 5 6 5 6 6 6 9 14 14 14 16 18 18 19 19
8 8 9 10 11 10 10 9 9 10 8 8 6 7 6 6 6 6 6 6 6 6 6 6 6 6 6 6 5 6 5 6 7 5 3 3 3 3 4 5 5 5 5 4 3 4 4 4 3 3 4 5 3 4 3 5 4 5 5 6 6 6 6 6 6 6 5 4 6 5 5 4 5 6 7 7 7 8 14 15 14 15 18 20 21
10 8 9 9 9 10 12 11 12 11 10 8 7 5 6 6 5 6 6 6 7 7 6 5 5 6 6 6 6 6 6 6 6 7 6 5 4 3 3 4 4 4 4 5 5 6 4 4 3 4 4 5 4 5 4 5 6 6 6 6 6 6 6 7 6 5 3 4 5 5 5 5 5 5 5 6 6 7 10 14 15 17 17 18 21
10 9 8 10 11 9 11 11 11 11 10 10 8 7 6 6 5 6 6 7 6 6 6 6 6 5 6 6 7 7 7 7 7 6 6 6 5 5 4 3 4 5 4 4 4 2 3 4 5 4 4 4 5 5 5 5 5 6 6 7 7 5 6 5 5 3 5 6 6 6 7 6 6 6 6 6 6 6 6 9 13 16 17 18 18
8 10 8 8 7 8 8 9 11 10 9 9 8 7 6 5 4 6 6 7 6 6 6 6 6 6 6 7 7 7 7 7 7 7 7 6 7 7 6 5 4 4 4 4 4 4 5 4 5 5 3 5 6 5 6 6 5 5 6 7 4 4 4 4 4 4 6 6 7 7 4 7 6 7 8 7 6 6 6 6 6 6 9 16 17
8 8 9 8 8 7 6 7 9 10 8 8 8 7 7 7 6 4 6 7 6 7 6 7 6 6 6 6 7 7 7 7 6 6 7 7 6 5 6 5 5 5 6 6 6 6 7 6 7 6 5 5 5 5 4 3 3 3 5 6 5 5 5 5 5 6 7 7 8 6 7 7 6 7 7 7 6 6 7 7 7 8 7 10 14
8 8 9 9 9 9 9 10 8 9 9 9 9 9 9 7 6 7 7 7 7 7 7 7 7 7 7 6 6 7 7 7 8 7 7 6 6 6 5 6 6 6 6 7 7 7 7 7 6 5 6 5 4 3 3 2 3 4 5 6 8 6 7 6 8 8 9 9 7 7 7 6 7 7 8 6 6 6 7 8 8 8 8 8 10
9 9 11 12 11 9 11 10 8 10 10 11 10 9 9 9 9 9 6 6 6 7 7 6 7 6 7 7 7 6 7 8 8 7 7 7 6 6 6 6 6 6 6 5 4 6 6 5 4 4 5 7 5 4 4 4 2 5 5 5 5 6 8 8 8 9 9 7 7 6 7 8 8 8 7 6 6 7 8 8 8 8 8 8 9
13 14 13 11 11 10 10 10 9 10 10 10 10 10 8 7 7 5 7 4 4 6 6 6 6 7 6 6 7 7 7 7 7 7 7 6 7 6 6 6 6 5 4 5 5 6 7 7 7 7 4 2 4 2 5 7 5 2 1 2 4 6 3 2 5 6 8 8 6 6 8 7 10 8 7 6 6 8 7 8 8 8 9 9 9
9 9 10 11 10 10 9 10 11 10 10 10 11 9 9 7 6 6 5 6 6 4 4 4 5 5 7 6 6 6 7 7 7 7 7 7 7 7 6 6 8 6 5 5 5 6 6 5 5 7 6 4 3 6 5 6 6 3 3 3 1 0 10 4 2 6 7 8 6 8 5 8 8 7 5 7 7 7 7 7 8 9 9 9 9
10 11 11 12 10 13 12 13 12 11 10 10 10 8 7 6 6 3 3 2 1 3 4 6 6 5 4 3 5 5 5 5 5 5 5 7 7 7 6 5 3 4 4 5 5 6 5 5 6 5 5 6 7 4 1 3 4 6 5 0 2 1 5 6 7 8 3 2 4 6 7 7 7 7 6 8 6 7 8 8 8 8 9 9 9
10 10 11 12 10 10 9 9 9 9 10 9 10 9 9 10 8 8 8 5 7 6 10 9 7 6 6 3 2 4 5 4 5 5 6 5 5 5 5 5 5 6 8 7 6 4 4 5 8 8 8 8 7 3 2 2 6 6 7 7 5 4 5 2 3 7 3 4 5 4 5 6 7 8 7 7 7 8 7 8 8 9 9 9 9
10 7 5 6 7 8 8 9 9 9 9 8 9 9 9 9 11 11 10 10 10 6 2 3 6 3 3 4 5 3 3 4 4 4 5 6 6 5 5 4 5 5 3 3 3 5 7 8 6 5 6 5 3 5 5 6 2 5 6 7 6 6 5 3 5 4 9 4 2 3 6 5 7 7 6 7 8 7 7 8 9 9 9 9 9
7 4 5 5 8 9 9 9 8 9 8 8 9 9 10 9 9 8 8 8 8 7 4 4 2 4 3 1 0 1 1 1 1 3 3 2 1 0 2 4 5 5 5 5 5 3 3 2 3 5 5 5 6 7 8 4 6 3 5 7 8 7 6 6 7 8 9 10 13 9 6 7 5 7 7 7 7 8 9 9 9 9 9 10 9
5 7 7 7 6 6 8 7 8 8 7 9 9 8 9 9 8 8 7 4 6 6 4 2 4 2 4 3 5 3 4 4 4 4 4 3 4 3 3 3 3 2 1 1 0 1 2 3 4 5 7 7 8 7 2 6 7 8 5 4 3 4 5 5 5 3 6 8 11 8 12 4 4 5 6 6 7 8 9 11 10 10 10 10 9
6 5 5 5 5 5 7 8 8 7 7 8 8 7 7 8 8 8 8 6 5 3 5 4 3 3 4 3 3 3 2 3 2 2 4 4 4 4 4 3 3 3 3 3 3 3 2 2 3 3 3 3 3 3 5 4 3 3 3 3 3 3 3 4 5 7 7 10 13 10 9 11 12 8 7 7 8 9 9 11 10 9 10 9 9
4 5 5 5 5 6 7 8 7 6 6 8 8 8 7 7 8 7 8 7 6 7 7 5 4 5 5 3 3 2 2 4 5 5 4 3 2 4 4 4 3 2 2 3 3 2 2 2 2 2 2 3 4 4 4 5 4 4 3 4 6 5 6 6 4 3 5 5 7 10 10 9 9 14 7 7 7 8 9 10 9 10 9 9 9
Wind_Direction
141 128 136 136 117 114 104 100 99 99 99 98 95 92 88 83 83 78 82 93 83 77 75 76 80 75 74 75 73 75 76 75 73 71 70 73 71 67 70 70 70 70 71 69 69 71 70 69 66 66 66 67 66 64 60 62 63 64 65 67 69 71 72 70 66 62 59 60 63 67 70 74 76 78 78 76 73 70 67 66 62 64 67 69 71
140 131 137 125 122 114 109 105 103 102 101 98 94 95 93 89 77 75 86 89 90 84 81 81 77 75 76 76 77 81 82 79 77 75 72 73 73 73 69 71 72 71 70 70 68 69 70 69 70 69 69 69 70 69 63 65 67 65 65 67 69 70 69 71 70 66 64 62 60 62 66 70 74 77 79 76 73 71 70 71 69 67 69 75 73
125 131 131 129 122 116 113 110 106 104 101 96 93 92 95 87 86 90 79 76 74 79 86 83 82 81 80 79 84 85 80 79 82 81 78 73 75 79 75 72 73 73 72 72 72 71 72 72 71 71 70 74 74 72 68 65 65 65 64 63 64 67 73 73 72 68 62 59 59 56 57 64 70 78 81 79 78 73 71 74 73 75 75 73 73
127 129 124 122 118 118 116 110 107 105 104 101 98 94 92 95 98 92 89 85 83 85 85 85 85 85 83 87 93 87 86 85 82 83 82 82 75 72 79 79 78 78 74 75 76 75 75 75 75 74 76 78 75 72 64 62 58 57 56 58 65 72 76 74 70 67 64 63 60 58 53 50 60 71 75 80 80 77 77 77 76 77 77 75 75
123 124 125 122 117 118 118 117 113 111 109 105 100 100 101 100 98 97 98 96 94 92 91 89 87 87 88 86 84 88 84 85 85 83 83 82 82 77 74 75 74 75 79 78 76 75 75 75 76 77 76 78 70 65 61 57 56 55 54 57 67 73 74 72 71 70 66 63 63 61 45 49 54 67 75 79 80 78 75 76 76 75 74 77 78
125 127 128 120 116 123 123 118 114 113 112 112 113 108 94 94 100 96 93 96 101 98 95 91 88 89 94 94 90 88 88 84 85 82 80 81 81 78 75 80 79 76 73 73 75 76 76 77 77 79 79 78 74 66 60 57 55 53 51 56 70 75 74 75 75 72 67 64 57 56 55 56 60 56 67 73 80 81 79 78 77 77 76 73 73
129 132 127 123 123 128 125 119 116 114 114 117 113 102 96 103 97 90 91 95 101 102 98 97 95 94 88 87 87 89 89 89 85 85 85 83 81 78 81 79 78 78 77 76 76 75 75 76 78 78 80 81 85 77 59 58 56 51 47 48 63 80 81 78 75 72 70 64 59 57 54 55 63 73 72 73 78 78 78 78 76 74 72 74 76
128 129 131 126 127 130 125 122 119 117 116 115 114 110 111 98 87 91 93 102 106 101 103 101 99 96 93 90 98 95 89 88 86 85 85 82 78 78 73 76 81 78 77 77 77 81 81 80 81 83 83 86 90 79 59 58 56 51 44 48 64 80 83 79 76 75 72 68 62 58 58 67 63 64 76 77 75 75 77 78 76 75 74 73 68
132 132 129 128 130 130 125 125 122 120 117 114 112 112 102 104 112 101 99 104 110 104 104 102 98 94 93 94 95 95 93 88 86 85 84 83 81 79 79 80 79 81 84 84 83 80 79 81 82 84 85 86 89 67 59 57 55 51 51 64 71 70 71 75 76 77 74 71 69 62 57 54 62 69 77 77 76 73 70 68 74 78 78 73 71
133 131 130 128 130 130 129 126 126 124 120 117 113 106 104 102 101 99 101 106 108 106 103 100 97 96 95 90 87 96 96 93 93 91 88 86 84 85 83 78 76 79 82 86 83 83 83 81 82 84 86 85 82 65 55 53 54 54 56 67 75 75 72 71 73 76 80 79 76 73 74 67 51 65 80 83 81 81 74 72 75 86 102 84 76
126 128 129 127 134 136 132 128 127 127 122 120 117 106 106 103 106 105 104 109 112 105 100 100 99 99 101 101 96 92 92 89 87 89 87 86 87 86 84 82 80 79 81 82 85 83 83 82 79 80 81 83 74 63 53 52 53 52 58 66 70 73 74 76 74 72 71 69 63 53 52 57 69 58 78 82 85 92 92 85 77 66 61 79 83
122 125 127 130 139 137 129 127 130 129 127 124 119 115 108 105 108 106 106 109 106 100 102 101 102 102 101 98 101 101 91 92 93 89 86 87 89 87 81 78 79 80 81 83 83 85 84 85 85 83 82 81 76 63 52 52 52 51 57 63 66 65 66 68 67 63 65 68 66 64 55 46 43 68 74 76 76 77 82 77 75 76 82 73 76
121 124 127 131 135 134 130 131 131 133 130 128 127 120 112 106 101 108 113 114 109 104 102 102 100 103 104 106 102 98 95 94 100 99 93 94 93 85 79 79 80 80 83 86 88 88 87 85 83 82 82 82 77 65 54 54 54 54 56 61 63 65 67 69 70 71 68 66 65 55 52 49 45 70 72 72 71 68 65 60 67 71 65 72 85
125 126 130 130 134 136 130 131 134 133 132 131 130 125 118 109 100 93 95 106 112 110 109 105 104 104 102 99 104 103 101 96 94 97 98 99 93 89 89 87 81 81 80 82 86 87 87 87 86 85 84 85 83 69 58 57 56 54 53 53 47 50 60 71 77 79 72 65 61 59 53 61 65 72 76 77 71 67 66 65 67 67 68 75 74
132 133 132 128 130 134 132 132 134 130 130 132 132 130 124 116 107 101 105 103 107 110 110 106 105 108 110 105 104 107 104 97 89 101 98 97 94 90 89 90 89 87 84 81 79 82 83 84 83 84 88 90 83 69 62 58 54 49 52 52 47 56 62 66 66 69 72 66 60 55 50 45 73 73 73 74 75 74 70 69 71 74 70 75 84
134 134 132 132 131 132 130 134 131 132 132 134 135 132 128 121 116 111 107 105 109 115 114 111 110 111 113 117 101 108 120 98 74 68 86 92 97 98 96 93 92 90 89 90 88 87 87 85 85 87 88 87 79 69 62 56 50 44 44 47 49 51 62 74 79 79 77 77 68 63 53 52 75 78 78 78 79 77 74 73 70 71 79 83 83
131 131 135 138 138 137 134 134 137 134 135 136 134 133 129 125 122 119 107 102 101 109 115 115 114 116 121 88 81 77 78 86 83 78 75 88 90 93 94 92 90 90 91 92 89 90 91 89 87 85 86 85 74 65 56 46 37 27 36 38 41 39 49 82 90 98 96 92 82 76 73 58 71 78 77 81 80 78 77 75 77 81 76 69 75
135 138 143 144 145 146 138 134 133 136 138 137 136 135 132 126 124 118 115 114 111 103 98 100 101 104 93 89 81 77 79 80 77 74 77 80 83 92 92 95 94 92 91 88 92 91 95 95 92 89 85 83 72 64 50 34 24 20 26 23 22 24 35 90 104 103 105 99 100 98 88 80 85 84 85 83 83 87 88 85 84 85 85 88 85
141 144 142 146 153 153 149 146 148 144 146 143 142 138 131 126 123 119 118 116 110 108 105 107 108 109 101 96 90 86 85 82 83 85 88 92 90 89 97 100 100 100 97 97 99 98 93 97 95 97 96 90 76 66 50 35 16 11 11 8 8 8 38 98 102 109 107 111 122 111 68 77 86 84 86 82 90 99 98 94 89 91 101 92 80
145 144 147 155 156 157 156 155 156 152 149 146 142 139 136 132 129 126 121 118 119 117 114 110 112 110 111 110 105 99 92 89 87 88 93 97 100 104 106 109 109 109 108 106 104 108 109 107 104 102 106 103 86 72 51 34 22 9 6 358 355 3 37 86 108 105 111 116 105 91 48 321 106 94 84 96 98 92 99 97 92 87 92 104 123
142 149 151 160 161 160 160 160 163 156 153 149 144 136 141 133 130 130 128 125 125 122 117 114 114 120 120 127 121 117 118 106 94 101 101 108 113 113 114 113 114 110 111 114 114 109 113 111 110 115 122 116 108 101 92 61 14 357 350 349 353 359 27 95 102 118 121 125 117 128 31 24 61 99 104 103 88 93 90 103 112 101 108 121 144
155 162 157 163 163 165 163 165 168 164 162 154 151 144 131 141 138 137 132 130 128 127 128 134 133 138 142 146 145 145 142 130 120 109 113 116 118 118 113 112 113 115 117 122 126 124 119 125 131 137 133 117 69 67 90 156 215 260 318 349 346 341 352 102 117 118 127 132 146 119 72 120 117 110 97 85 84 94 95 90 99 111 86 56 341
175 185 161 172 163 165 163 167 174 171 168 156 154 153 157 152 153 146 141 141 144 144 148 144 150 154 164 173 170 165 160 149 137 135 128 131 131 125 123 121 119 119 122 126 129 131 138 143 145 146 149 128 325 335 301 266 256 296 296 347 331 318 321 103 109 129 146 159 133 124 120 217 123 59 40 92 116 113 88 92 91 108 167 170 49
181 188 178 181 166 167 168 171 176 172 164 158 152 158 163 159 160 157 153 154 157 162 160 160 163 172 177 183 190 166 172 143 137 132 123 122 129 129 131 130 129 125 119 113 123 136 142 155 155 189 294 215 250 264 261 274 267 253 294 271 301 291 249 122 127 141 148 147 156 196 231 168 132 145 145 124 41 124 204 88 92 31 4 337 351
176 183 185 181 184 166 169 173 172 168 159 154 154 164 167 163 168 165 164 165 168 178 176 172 172 186 187 181 193 157 161 146 143 141 138 136 136 135 140 146 143 141 137 138 143 149 136 162 252 242 241 223 200 235 226 247 276 297 251 247 253 267 211 128 129 140 157 159 169 219 269 265 258 334 290 101 175 100 153 193 155 260 174 237 202
172 178 197 191 191 172 169 172 163 165 162 157 163 166 168 168 171 171 167 174 179 183 191 174 181 191 189 189 179 151 158 151 150 151 151 153 150 163 170 165 165 172 167 162 173 177 177 189 204 220 231 230 242 213 202 202 219 261 288 272 249 179 118 161 155 144 157 162 181 192 241 283 248 223 261 202 232 151 236 118 244 225 244 295 260
181 191 188 198 191 176 169 167 164 162 164 163 161 162 177 175 173 170 169 181 182 181 198 189 183 190 184 173 150 158 158 156 160 163 163 165 170 178 182 182 181 188 195 171 189 198 199 188 209 219 234 251 265 234 142 170 171 182 263 251 230 156 148 157 191 153 164 171 185 204 209 242 226 227 270 266 262 194 229 203 224 247 215 256 279
178 186 190 193 186 188 167 168 168 161 164 166 166 170 179 173 176 173 176 178 177 186 190 198 182 182 187 165 168 173 157 160 176 177 179 174 185 192 192 183 197 203 193 196 188 200 205 195 201 220 232 229 224 226 297 327 287 207 191 325 296 234 197 189 203 189 169 177 190 204 210 232 263 259 272 253 235 223 244 199 197 239 250 208 230
179 187 188 189 192 189 173 170 169 168 164 165 168 178 177 175 175 175 180 173 183 186 186 190 184 182 191 167 161 183 167 164 174 193 186 182 193 197 197 198 193 208 190 206 191 195 200 189 199 208 223 224 222 230 241 267 273 263 233 241 244 244 250 218 211 196 188 188 194 207 211 222 235 246 248 264 249 234 249 260 205 225 258 248 235
186 183 182 189 191 182 183 179 173 172 173 165 168 174 179 171 176 180 184 172 182 186 176 180 184 176 190 186 161 174 183 170 180 196 185 200 193 197 199 205 195 198 194 195 195 180 194 192 201 208 207 218 222 242 216 235 261 255 244 247 250 243 224 223 215 208 192 194 201 208 211 215 226 232 244 250 239 247 253 265 207 219 235 240 239
182 184 184 186 188 180 182 181 176 172 171 178 172 173 178 177 172 179 175 181 180 175 172 177 173 176 185 193 179 160 183 178 182 189 197 200 195 194 200 186 193 187 187 197 185 189 188 189 195 202 206 215 227 229 215 228 239 247 248 241 249 237 254 245 234 225 210 199 201 205 213 216 220 225 235 249 246 244 254 262 242 236 243 245 255
184 186 184 180 184 189 180 178 175 173 172 181 176 176 180 179 175 171 174 176 172 173 172 172 177 171 178 190 187 187 170 178 172 200 204 195 198 192 202 184 203 207 192 192 185 196 191 203 200 199 201 196 226 231 220 216 231 235 246 245 243 226 238 253 250 238 224 214 204 209 211 219 222 223 227 233 243 249 246 250 255 252 250 253 247
194 181 180 175 183 187 184 181 172 173 175 179 181 178 179 179 174 177 176 173 171 169 175 180 179 179 174 182 191 185 195 178 178 175 208 213 195 187 193 200 206 207 190 198 190 191 190 181 209 201 186 177 218 264 288 237 233 240 231 249 251 247 238 241 244 249 250 235 220 207 209 217 223 229 230 229 232 237 243 245 249 259 263 261 253
188 190 177 181 180 183 183 179 175 169 178 177 177 175 181 182 177 176 178 175 176 175 184 183 182 186 179 181 188 190 182 204 173 181 175 208 212 190 188 202 207 205 192 181 193 183 191 181 206 170 213 208 234 249 269 277 269 278 256 250 251 244 240 240 241 233 225 243 244 229 215 211 218 226 236 240 237 235 238 240 243 249 255 257 258
176 186 187 183 177 179 179 185 180 173 168 172 177 175 174 177 181 180 181 178 183 185 185 187 187 187 182 184 184 196 193 189 197 175 193 180 221 213 187 192 194 187 177 190 180 189 180 202 180 197 235 240 239 256 249 250 261 273 268 267 256 246 240 234 240 243 233 235 237 247 237 224 216 222 231 235 244 243 240 240 240 242 248 252 255
189 187 187 178 180 180 181 183 184 183 181 176 174 175 173 172 181 184 177 181 183 191 195 190 187 187 185 186 186 182 193 198 195 186 189 200 199 227 227 181 186 184 188 183 168 189 203 208 211 185 214 248 243 257 242 251 250 255 252 253 252 244 235 235 239 246 239 232 243 251 249 235 226 222 221 228 234 241 242 243 245 244 245 249 252
197 184 181 183 177 179 180 181 185 189 188 182 175 177 180 181 180 186 185 182 186 194 197 193 187 187 189 189 188 185 190 191 200 196 197 202 216 219 211 198 175 192 198 194 189 199 192 203 229 217 201 228 214 235 246 239 247 247 252 249 246 238 234 231 236 238 268 254 254 253 256 255 248 249 244 234 232 236 244 245 247 249 248 250 251
197 192 184 182 184 174 179 181 184 185 186 188 185 181 188 190 189 188 188 189 194 193 194 194 200 191 185 193 190 190 192 193 192 200 206 200 203 212 228 198 172 181 195 196 216 184 185 185 227 232 209 210 221 220 238 242 242 250 250 246 249 236 238 242 243 258 245 252 252 250 247 255 256 251 247 245 244 243 245 247 248 251 252 250 250
190 191 184 185 182 181 173 173 177 180 182 183 186 185 184 188 187 192 199 198 196 194 190 197 201 196 191 190 191 193 196 197 198 195 198 210 215 225 226 225 197 183 177 183 190 195 206 212 217 244 228 217 220 217 221 223 242 249 250 250 249 247 260 262 270 266 258 248 248 250 257 254 251 252 253 251 247 250 254 257 259 254 250 249 251
185 185 187 182 181 180 181 171 177 174 172 176 177 184 187 195 193 193 207 211 204 197 199 195 193 200 200 188 192 194 193 196 199 206 206 201 210 218 224 229 219 190 187 188 205 203 209 217 226 222 240 248 233 230 221 220 253 258 265 277 263 261 261 252 254 249 252 248 249 254 251 255 246 254 255 255 260 259 255 256 254 255 258 260 256
184 183 187 191 186 181 174 184 181 167 168 175 181 182 190 199 208 206 204 202 201 200 201 201 199 202 200 196 189 191 192 198 201 199 206 206 209 215 219 227 223 213 201 207 210 212 216 214 217 202 212 231 251 219 230 187 249 287 270 273 284 255 252 252 248 246 244 245 244 249 254 260 253 253 254 256 256 255 256 255 255 256 256 256 262
196 186 191 195 194 182 182 184 174 176 177 180 182 187 193 197 195 204 191 182 190 194 203 205 203 202 203 201 195 190 192 197 200 202 204 202 209 214 216 218 209 213 215 217 216 222 218 213 200 224 218 210 229 187 199 131 235 230 281 309 293 280 242 235 244 249 246 249 245 246 251 248 253 251 256 252 254 251 251 251 253 254 254 255 258
189 190 193 189 193 188 189 182 182 180 183 178 177 192 193 190 188 193 183 192 215 194 188 194 197 201 201 200 198 193 193 198 195 200 203 207 207 208 213 212 211 208 211 217 210 217 211 208 194 207 225 259 251 214 190 179 218 131 127 350 296 335 331 305 271 265 255 250 239 241 243 247 252 248 248 252 250 251 250 250 252 251 252 252 253
187 195 191 190 191 191 188 184 185 185 184 184 185 189 184 180 184 172 188 184 192 198 200 203 200 199 212 202 192 190 190 192 193 197 204 208 209 214 217 218 218 201 200 214 218 224 209 205 204 217 199 213 210 245 203 201 182 124 295 212 239 95 309 306 310 271 228 235 227 240 234 246 254 259 257 249 250 251 254 250 251 250 251 251 249
190 190 189 191 190 190 187 185 185 185 185 181 182 169 157 166 172 160 147 135 37 164 184 222 209 204 194 173 183 169 173 188 197 201 206 212 212 215 218 222 208 203 194 212 218 221 216 211 205 207 197 212 234 230 236 192 213 202 187 138 316 275 223 281 340 290 188 266 248 233 237 245 250 251 244 249 248 250 254 256 252 251 253 251 251
198 198 194 193 189 188 180 180 182 184 183 180 174 165 172 170 169 172 180 189 192 179 194 195 192 191 191 208 200 183 170 166 173 193 200 212 224 215 214 216 222 224 215 209 208 206 216 209 208 206 214 216 220 211 254 228 221 223 230 230 223 259 293 265 12 300 324 222 241 215 239 227 237 246 235 250 248 252 245 255 251 254 251 250 249
211 199 193 194 190 181 182 178 180 186 184 176 172 167 172 178 183 187 185 188 188 212 193 175 168 204 167 160 183 196 185 185 198 186 194 200 206 213 216 227 238 251 226 208 213 214 218 218 206 201 216 212 187 222 222 228 181 249 233 240 253 249 238 280 262 312 302 318 331 278 266 223 235 241 242 240 245 248 250 245 251 251 251 248 248
197 173 195 195 187 185 181 183 180 181 185 175 174 176 176 180 177 178 176 178 184 186 180 176 167 129 105 83 43 21 60 139 115 81 89 87 95 274 261 245 237 233 216 214 224 263 295 290 192 205 215 197 195 212 231 215 192 244 205 231 239 251 259 247 246 251 279 295 294 291 250 260 235 247 244 247 245 248 256 254 251 251 250 249 245
183 191 194 192 187 180 179 176 177 175 182 177 174 182 173 174 172 165 171 181 160 174 167 128 140 140 115 62 94 86 72 79 105 108 104 103 79 64 52 44 27 13 57 59 296 274 259 248 228 207 207 211 206 210 222 228 199 225 187 250 257 258 260 256 266 254 250 280 279 263 287 252 250 270 266 239 247 246 250 258 254 249 248 248 244
199 191 183 167 174 168 172 174 180 175 171 173 169 167 164 157 164 172 171 167 152 108 111 105 95 94 102 70 61 53 54 85 95 116 101 83 71 59 56 43 25 21 23 28 31 21 353 309 278 274 272 264 257 238 244 289 280 274 195 182 206 243 261 274 248 243 247 231 263 279 280 292 290 275 260 255 236 248 250 256 258 253 251 249 246
179 173 177 175 167 167 167 173 179 167 164 166 165 166 162 164 166 168 162 156 155 135 116 104 99 88 106 74 67 55 43 22 28 31 36 35 43 67 67 67 64 58 32 27 6 345 320 305 300 296 246 229 237 233 244 251 254 253 245 223 235 223 239 247 251 220 237 267 286 278 279 274 280 295 260 236 256 247 252 258 257 254 248 249 246